Regional Weather Roundup
Issued by NWS

Home | Current Version | Previous Version | Text Only | Print | Product List | Glossary Off
Versions: 1 2 3 4 5 6 7 8 9 10 11 12 13 14 15 16 17 18 19 20 21 22 23 24 25 26 27 28 29 30 31 32 33 34 35 36 37 38 39 40 41 42 43 44 45 46 47 48 49 50

000
ASUS43 KBIS 241310
RWRND

NORTH DAKOTA REGIONAL WEATHER ROUNDUP
NATIONAL WEATHER SERVICE BISMARCK ND
800 AM CDT WED MAY 24 2017

NOTE: "FAIR" INDICATES FEW OR NO CLOUDS BELOW 12,000 FEET WITH NO
SIGNIFICANT WEATHER AND/OR OBSTRUCTIONS TO VISIBILITY.


NDZ001>003-009>011-017-241400-
NORTHWEST NORTH DAKOTA

CITY           SKY/WX    TMP DP  RH WIND       PRES   REMARKS
WILLISTON      FAIR      54  37  52 SE18G30   29.60F
MINOT          FAIR      55  38  52 S15       29.71F
MINOT AFB      SUNNY     54  38  53 S17G24    29.70F
$$

NDZ018>021-031>035-040>046-241400-
SOUTHWEST NORTH DAKOTA

CITY           SKY/WX    TMP DP  RH WIND       PRES   REMARKS
BISMARCK       FAIR      43  38  82 NE3       29.79F
DICKINSON      FAIR      49  35  58 S22G28    29.67F
GARRISON         N/A     49  39  68 S12       29.73F
HETTINGER ARPT SUNNY     48  36  63 SE10      29.73F
$$

NDZ004>008-012>016-024-026-027-054-241400-
NORTHEAST NORTH DAKOTA

CITY           SKY/WX    TMP DP  RH WIND       PRES   REMARKS
GRAND FORKS    MOSUNNY   50  46  86 SE5       29.83F
GRND FRKS AFB  SUNNY     51  45  80 CALM      29.83F
DEVILS LAKE    FAIR      51  44  77 SE7       29.81F
$$

NDZ022-023-025-028>030-036>039-047>053-241400-
SOUTHEAST NORTH DAKOTA

CITY           SKY/WX    TMP DP  RH WIND       PRES   REMARKS
FARGO          SUNNY     49  45  86 CALM      29.84S
JAMESTOWN      FAIR      48  43  82 SE9       29.80F
$$




USA.gov is the U.S. government's official web portal to all federal, state and local government web resources and services.